Weather in Pechenezhin

Ukraine / Ivano-Frankovsk District     48°30′35″N   24°53′21″E
temp.,
°C
wind,
m/s
gust,
m/s
humid.,
%
clouds,
%
prec.,
mm/h
press.,
hPa
HPBL,
m
17 april, sat
sat1700:00+2wnw128287 0.0 101931
03:00+2wsw018648 0.0 101912
06:000sw119036 0.0 102011
09:00+4sse116661 0.0 1020340
12:00+9ene215414 0.0 10191024
15:00+10ene435475 0.0 10181400
18:00+8ene347098 0.0 1019908
21:00+6e3581100 0.0 1020231
18 april, sun
sun1800:00+3ese129399 0.0 102031
03:00+3e129497 0.0 102069
06:00+3ese129392 0.0 101979
09:00+5e2382100 0.0 1019357
12:00+8ese3468100 0.0 10181045
15:00+11e3458100 0.0 10171365
18:00+11ene3560100 0.0 1016862
21:00+8e2274100 0.1 101725
19 april, mon
mon1900:00+7sse1177100 0.0 101716
03:00+7ene1180100 0.1 101622
06:00+6ese1288100 0.2 101681
09:00+7e1288100 0.4 1016185
12:00+6ene3389100 0.3 1016355
15:00+7e1285100 0.5 1015320
18:00+7sw2286100 0.1 1014183
21:00+5wnw1192100 0.1 101414
20 april, tue
tue2000:00+6nw2289100 0.1 101268
03:00+6nnw1289100 0.1 101247
06:00+4wnw2491100 0.0 1011121
09:00+6wnw3678100 0.1 1011559
12:00+9nw455991 0.2 10101403
15:00+11nw565596 0.5 10091595
18:00+10nw575923 0.2 10091097
21:00+6wnw348129 0.2 101159
21 april, wed
wed2100:00+5wsw228282 0.0 101125
03:00+5wsw118161 0.0 101117
06:00+3sw228992 0.0 101226
09:00+9nw136540 0.0 1012395
12:00+11wsw135797 0.1 10131320
15:00+12wsw565852 1.3 10131399
18:00+11wsw58602 0.1 1013961
21:00+6ssw22779 0.1 101512